Flag Weather past 2 weeks in Hudson, Wisconsin, U.S.A.

Now
22 °F

Overcast.


Feels Like: 6 °F
Forecast: 21 / 35 °F
Wind: 22 mph from Northwest

Location: St. Paul Downtown Holman Field

Current Time: Nov 24, 2014 at 12:19:47 PM

Latest Report: Nov 24, 2014 at 11:53 AM


Visibility: 10 mi

Pressure: 29.49 "Hg

Humidity: 82%

Dew point: 17 °F

Location of HudsonLocation

Historic Weather in Hudson — Graph

°F

Hudson temperature yesterday

Maximum temperature yesterday: 47 °F (at 11:53 AM)
Minimum temperature yesterday: 32 °F (at 11:53 PM)
Average temperature yesterday: 42 °F

Past Weeks' High & Low Weather Summary

 TemperatureHumidityPressure
High47 °F (Nov 23, 11:53 AM)100% (Nov 22, 7:53 PM)30.45 "Hg (Nov 22, 7:53 PM)
Low4 °F (Nov 21, 2:53 AM)36% (Nov 9, 4:53 PM)29.31 "Hg (Nov 24, 2:53 AM)
Average22 °F77%30.02 "Hg
* Reported Nov 9 10:53 AM — Nov 24 10:53 AM, Hudson, Weather by CustomWeather, © 2014

Note: Actual official high and low records may vary slightly from our data, if they occured in-between our weather recording intervals... More about our weather records

Advertising

Hudson weather history for previous 24 hours

 ConditionsComfort  
Time TempWeatherWind HumidityBarometerVisibility
10:53 AM
Nov 24
22 °FOvercast.22 mph82%29.47 "Hg10 mi
9:53 AM23 °FOvercast.23 mph85%29.45 "Hg10 mi
8:53 AM24 °FOvercast.18 mph81%29.42 "Hg10 mi
8:02 AM24 °FOvercast.20 mph84%29.39 "Hg10 mi
7:53 AM24 °FOvercast.20 mph84%29.39 "Hg8 mi
6:53 AM25 °FOvercast.16 mph88%29.38 "Hg7 mi
5:53 AM26 °FLight snow. Ice fog.17 mph88%29.34 "Hg5 mi
4:53 AM29 °FOvercast.17 mph85%29.32 "Hg10 mi
3:53 AM32 °FOvercast.N/A85%29.32 "Hg10 mi
2:53 AM32 °FOvercast.16 mph85%29.31 "Hg10 mi
1:53 AM32 °FLight snow. Ice fog.12 mph88%29.32 "Hg5 mi
12:53 AM32 °FLight snow. Ice fog.13 mph92%29.33 "Hg1 mi
11:53 PM
Nov 23
32 °FLight snow. Ice fog.17 mph92%29.35 "Hg2 mi
10:53 PM34 °FOvercast.16 mph88%29.36 "Hg10 mi
9:53 PM37 °FOvercast.15 mph93%29.36 "Hg10 mi
8:53 PM38 °FLight rain. Mostly cloudy.13 mph90%29.37 "Hg10 mi
7:53 PM39 °FMostly cloudy.10 mph89%29.38 "Hg10 mi
7:03 PM39 °FMostly cloudy.10 mph89%29.39 "Hg10 mi
6:53 PM39 °FMostly cloudy.12 mph89%29.40 "Hg10 mi
5:53 PM39 °FMostly cloudy.10 mph89%29.41 "Hg9 mi
4:53 PM40 °FPassing clouds.8 mph86%29.40 "Hg10 mi
4:02 PM42 °FMore clouds than sun.9 mph82%29.40 "Hg10 mi
2:53 PM43 °FOvercast.10 mph93%29.39 "Hg7 mi
1:53 PM44 °FFog.7 mph96%29.41 "Hg5 mi
1:04 PM45 °FFog.5 mph100%29.41 "Hg1 mi
12:53 PM46 °FFog.3 mph100%29.41 "Hg1 mi
Weather by CustomWeather, © 2014

See weather overviewHow to use our weather pages